www.pogodaiklimat.ru

ПОГОДА в Головине, AK

  • Прогноз погоды в Головине
  • Монитор погоды в Головине
  • Климат в Головине

АРХИВ ПОГОДЫ в Головине

Время (UTC), дата Ветер
(напр.,м/с)
 
Видим.   Явления Облачность Т
(С)
Тd
(С)
f
(%)
Тe
(С)
Тes
(С)
Комфортность

P
(гПа)

Po
(гПа)
Тmin
(С)
Tmax
(С)
R
(мм)
SD
(см)
15:56 18.08 СЗ  16 км    ясно  +7.2  +5.0  86  +3  +3    1032.5  1031.8         
16:56 18.08 СЗ  16 км    ясно  +7.8  +5.0  82  +4  +5    1032.3  1031.4  +5.0  +8.9     
18:56 18.08 СЗ  16 км    ясно  +10.0  +5.6  74  +8  +11    1031.4  1030.7         
19:56 18.08 СЗ  16 км    ясно  +11.1  +7.2  77  +9  +14    1031.1  1030.4         
20:56 18.08 СЗ  16 км    ясно  +12.8  +7.8  72  +11  +17    1030.5  1029.7         
21:56 18.08 СЗ  16 км    ясно  +13.3  +7.8  69  +13  +22    1029.8  1029.0         
22:56 18.08 СЗ  16 км    ясно  +15.0  +7.2  60  +14  +21    1028.8  1028.0  +7.8  +15.0     
23:56 18.08 СЗ  16 км    ясно  +15.0  +6.1  55  +14  +21    1028.0  1027.4         
00:56 19.08 СЗ  16 км    ясно  +14.4  +7.8  65  +14  +19    1027.1  1026.3         
01:56 19.08 СЗ  16 км    ясно  +14.4  +8.3  67  +14  +18    1026.4  1025.7         
02:56 19.08 З  16 км    ясно  +13.9  +9.4  74  +13  +15    1025.8  1025.0         
03:56 19.08 СЗ  16 км    ясно  +13.9  +9.4  74  +13  +14    1025.1  1024.3         
04:56 19.08 С  16 км    ясно  +12.8  +8.3  74  +12  +12    1024.5  1023.6  +12.8  +15.0     
05:56 19.08 СЗ  16 км    ясно  +12.2  +8.3  77  +11  +11    1024.0  1023.3         
06:56 19.08 нст  16 км    ясно  +12.2  +9.4  83  +12  +12    1023.6  1023.0         
07:56 19.08 С  16 км    10/0 3600 м
[средняя] 
+10.6  +7.8  83  +10  +10    1022.9  1022.3         
08:56 19.08 СЗ  16 км    10/0 3300 м
[средняя] 
+11.1  +8.9  86  +10  +10    1022.5  1021.6         
09:56 19.08 С  16 км    10/0 3000 м
[средняя] 
+9.4  +7.8  90  +8  +8    1021.9  1021.3         
10:56 19.08 С  16 км    10/0 3300 м
[средняя] 
+10.0  +7.8  86  +8  +8    1021.2  1020.2  +8.9  +12.8     
11:56 19.08 С  16 км    10/0 3000 м
[средняя] 
+8.9  +7.2  89  +7  +7    1020.5  1019.9         
12:56 19.08 СЗ  16 км    10/0 2850 м
[средняя] 
+10.0  +7.8  86  +7  +7    1020.0  1019.2         
13:56 19.08 С  16 км    10/0 2700 м
[средняя] 
+8.3  +7.2  93  +5  +5    1019.6  1018.9         
14:56 19.08 С  16 км    10/0 2400 м
[средняя] 
+8.9  +6.7  86  +6  +6    1019.0  1018.2         
15:56 19.08 С  16 км    10/0 2250 м
[средняя] 
+8.9  +7.2  89  +6  +6    1018.6  1017.9         
16:56 19.08 С  16 км    10/0 3000 м
[средняя] 
+10.0  +7.8  86  +8  +8    1018.3  1017.5  +8.3  +10.6     
17:56 19.08 С  16 км    ясно  +11.1  +8.3  83  +9  +11    1017.8  1017.2         
18:56 19.08 З  16 км    ясно  +11.7  +8.9  83  +10  +14    1017.5  1016.9         
20:56 19.08 З  16 км    ясно  +13.3  +8.3  72  +12  +16    1016.5  1015.9         
21:56 19.08 З  16 км    ясно  +15.0  +9.4  69  +14  +19    1015.8  1015.2         
22:56 19.08 нст  16 км    ясно  +15.6  +8.9  64  +15  +22    1015.4  1014.5  +10.0  +15.6     
23:56 19.08 ЮЗ  16 км    8/8 1350 м  +16.1  +7.8  58  +16  +17    1015.1  1014.2         
00:56 20.08 Ю  16 км    8/8 1440 м  +15.0  +8.9  67  +14  +15    1014.7  1014.2         
01:56 20.08 Ю  16 км    5/5 1500 м  +15.6  +8.3  62  +15  +18    1014.4  1013.5         
02:56 20.08 ЮЗ  16 км    ясно  +15.6  +7.8  60  +15  +18    1014.1  1013.5         
03:56 20.08 З  16 км    2/2 1800 м  +15.6  +8.3  62  +16  +17    1014.1  1013.5         
04:56 20.08 СЗ  16 км    ясно  +13.9  +8.3  69  +13  +14    1014.1  1013.5  +13.9  +16.1     
05:56 20.08 СВ  16 км    ясно  +11.1  +7.8  80  +9  +10    1014.2  1013.5         
06:56 20.08 С  16 км    ясно  +10.0  +5.6  74  +7  +7    1014.3  1013.5         
07:56 20.08 С  16 км    ясно  +10.0  +5.0  71  +7  +7    1014.1  1013.5         
08:56 20.08 СЗ  16 км    ясно  +10.0  +5.6  74  +7  +7    1014.3  1013.5         
10:56 20.08 СЗ  16 км    ясно  +10.6  +5.6  71  +8  +8    1014.4  1013.8  +9.4  +13.9     
11:56 20.08 СЗ  16 км    ясно  +9.4  +5.6  77  +7  +7    1014.4  1013.5         
12:56 20.08 С  16 км    ясно  +8.9  +6.1  83  +6  +6    1014.2  1013.5         
13:56 20.08 СЗ  16 км    ясно  +8.9  +6.1  83  +6  +6    1014.1  1013.5         
14:56 20.08 С  16 км    ясно  +8.3  +5.6  83  +5  +5    1014.1  1013.5         
15:56 20.08 СЗ  16 км    ясно  +8.9  +5.6  80  +6  +6    1014.1  1013.5         
16:56 20.08 СЗ  16 км    ясно  +9.4  +6.1  80  +7  +8    1013.6  1012.8  +7.8  +10.6     
17:56 20.08 З  16 км    ясно  +10.6  +7.2  79  +8  +10    1013.3  1012.5         

 

Местоположение метеостанции Golovin Airport: широта 64.5433 долгота -163.0394 высота над уровнем моря 8 м.

В архиве по умолчанию представлена погода в Головине за последние 1-2 суток. Обновление информации о фактической погоде в базе происходит ежечасно! Архивные данные за месяц целиком и за предыдущие месяцы Вы можете получить, выбрав интересующий диапазон дат из раскрывающегося списка и нажав кнопку "Ввод!".

Внимание! Архив погоды МЕТАР в базе сайта хранится не более 60 дней. Нет смысла пытаться выбрать более раннюю дату.

Внимание! Время в таблицах - всемирное. Для получения местного времени необходимо прибавить поправку, которая в Головине равна -9 ч.

Ветер - указаны скорость ветра в м/с и направление, откуда дует ветер: С - северный, СВ - северо-восточный, В - восточный, ЮВ - юго-восточный, Ю - южный, ЮЗ - юго-западный, З - западный, СЗ - северо-западный.
Видимость - горизонтальная дальность видимости в метрах или километрах. При видимости от 1 до 10 км при отсутствии осадков обычно наблюдается дымка, при ухудшении видимости до 1 км и менее - туман. В сухую погоду видимость может ухудшаться дымом, пылью или мглою.
Атмосферные явления - указаны явления, наблюдавшиеся в указанный момент времени.
Облачность - указаны через наклонную черту верхняя и нижняя облачность в баллах и высота нижней границы облаков в метрах. Внимание: облачность, как и прочие метеорологические величины в США измеряются автоматическими метеостанциями. Указанные значения в баллах носят условный характер и показывают процент времени, в течение которого, в среднем, лазерный луч высотомера отражался от облаков обратно.
T - Температура воздуха - температура, измеренная на высоте 2 м над землей.
Td - Температура точки росы - температура, при понижении до которой содержащийся в воздухе водяной пар достигнет насыщения.
f - Относительная влажность воздуха - влажноcть воздуха, измеренная на высоте 2 м над землей.
Te - Эффективная температура - температура, которую ощущает одетый по сезону человек в тени. Характеристика душности погоды. При расчете учитывается влияние влажности воздуха и скорости ветра на теплоощущения человека.
Tes - Эффективная температура на солнце - температура, которую ощущает человек, с поправкой на солнечный нагрев. Характеристика знойности погоды. Зависит от высоты солнца над горизонтом, облачности и скорости ветра. Ночью, в пасмурную погоду, а также при ветре 12 м/с и более поправка равна нулю.
P - Атмосферное давление - приведенное к уровню моря атмосферное давление.
Po - Атмосферное давление - измеренное на уровне метеостанции атмосферное давление.
Tmin - Минимальная температура - минимум температуры воздуха на высоте 2 м над землей.
Tmax - Максимальная температура - максимум температуры воздуха на высоте 2 м над землей.
R - Количество осадков - Количество выпавших осадков за 3 или 6 часов, мм.
SD - Снежный покров - Высота снежного покрова, см.